[[{"header":{"parameterUnit":"m.s-1","parameterCategory":1,"la1":30.2991,"la2":30.254,"lo1":-89.0895,"lo2":-89.0444,"dy":0.0017,"dx":0.0017,"nx":28,"ny":28,"refTime":"2023-07-25T09:00:00:Z","depth":0,"parameterNumber":2,"parameterNumberName":"U-component_of_WINDS"},"data":[0,0,0,0,0,0,0,0,0,0,0,0,0,0,0,0,0,0,0,0,0,0,0,0,0,0,0,0,0,0,0,0,0,0,0,0,0,0,0,0,0,0,0,0,0,0,0,0,0,0,0,0,0,0,0,0,0,0,3.2155,3.2155,0,3.219,3.219,3.2191,3.2131,3.2129,3.2127,3.2125,3.2161,3.2163,3.2166,0,0,0,0,0,0,0,0,0,0,0,0,0,3.2035,3.2037,3.2155,3.2156,3.2156,3.219,3.2191,3.2191,3.2131,3.2129,3.2126,3.2124,3.216,3.2163,3.2166,0,0,0,0,0,0,0,0,0,0,0,0,0,3.208,3.2038,3.2155,3.213,3.2128,3.219,3.2191,3.2191,3.2132,3.2129,3.2126,3.2123,3.2159,3.2163,3.2167,3.2254,0,0,3.218,3.2182,0,0,0,0,0,0,0,0,3.2078,3.2085,3.2134,3.2132,3.213,3.2153,3.2161,3.2212,3.2133,3.2131,3.2125,3.2121,3.2161,3.2164,3.2178,3.2256,3.2257,3.218,3.2183,3.2185,3.2186,0,0,0,0,0,0,0,3.2074,3.2083,3.2169,3.2134,3.2132,3.2117,3.212,3.217,3.2162,3.2131,3.2126,3.2131,3.2159,3.2174,3.2178,3.2258,3.218,3.2184,3.2187,3.2188,3.2405,3.2408,0,0,0,0,0,0,3.2075,3.208,3.2168,3.217,3.2096,3.2121,3.2125,3.2149,3.2161,3.2161,3.2134,3.2128,3.2168,3.2173,3.2179,3.2278,3.2185,3.2189,3.2191,3.2402,3.2405,3.2409,0,0,0,0,0,0,3.2072,3.2083,3.2166,3.2124,3.2133,3.2127,3.2154,3.2151,3.2166,3.2164,3.2162,3.215,3.2166,3.2173,3.2235,3.2279,3.2191,3.2194,3.2398,3.2403,3.2407,3.248,0,0,0,0,0,0,3.2069,3.2082,3.2116,3.2125,3.2136,3.2222,3.2157,3.2154,3.2173,3.2166,3.2179,3.2178,3.2164,3.2229,3.2239,3.2283,3.2198,3.2394,3.24,3.2406,3.2474,3.2487,3.2498,0,0,0,0,0,3.2065,3.2136,3.2118,3.2129,3.2178,3.2225,3.2231,3.2213,3.2177,3.221,3.2208,3.2178,3.2273,3.2236,3.2247,3.2293,3.2391,3.2398,3.2405,3.2468,3.2484,3.2498,0,0,0,0,0,0,3.2133,3.2137,3.2117,3.2194,3.2209,3.2215,3.2256,3.2232,3.2258,3.2251,3.2227,3.2231,3.2296,3.2301,3.226,3.2376,3.2326,3.2336,3.237,3.2385,3.2397,3.2393,3.2201,0,0,0,0,0,3.2157,3.2195,3.2197,3.2264,3.2273,3.2263,3.2283,3.2268,3.2283,3.229,3.2293,3.2309,3.2342,3.2364,3.2395,3.2475,3.2475,3.2512,3.2524,3.2534,3.2542,3.2581,3.2596,3.2433,3.2432,3.2432,0,0,3.2207,3.2213,3.2239,3.2278,3.2288,3.2327,3.2269,3.2314,3.2342,3.2297,3.2354,3.2357,3.2373,3.2443,3.2474,3.2449,3.2587,3.2543,3.2551,3.2554,3.259,3.2605,3.2619,3.2437,3.2437,3.2436,0,0,3.2316,3.2327,3.2382,3.2393,3.2409,3.2402,3.2415,3.2425,3.2424,3.2482,3.2447,3.2481,3.2539,3.2551,3.2565,3.2676,3.2648,3.2687,3.275,3.2788,3.2801,3.2812,3.2848,3.2862,3.2696,3.2696,3.2696,0,3.2375,3.2433,3.2413,3.2459,3.2475,3.2436,3.249,3.2503,3.2528,3.254,3.2512,3.2582,3.2591,3.2661,3.2688,3.2702,3.2714,3.2684,3.2801,3.2812,3.2822,3.2856,3.287,3.27,3.27,3.2699,3.2699,0,3.2503,3.2544,3.2586,3.261,3.2632,3.2682,3.2669,3.2693,3.2676,3.2672,3.2729,3.2738,3.2767,3.2784,3.2769,3.2852,3.2835,3.2805,3.2753,3.2842,3.2873,3.2887,3.2707,3.2705,3.2704,3.2703,0,0,3.2656,3.2667,3.2683,3.2692,3.2706,3.2736,3.2784,3.2813,3.2832,3.2852,3.2889,3.2938,3.2909,3.2925,3.291,3.2944,3.3027,3.2909,3.2908,3.2927,3.3115,3.3135,3.3151,3.301,3.3012,3.3014,3.3112,0,3.2762,3.2843,3.2825,3.2904,3.2939,3.2902,3.2943,3.2955,3.2952,3.2981,3.2978,3.3011,3.2972,3.2981,3.3013,3.301,3.3064,3.3004,3.3042,3.3043,3.3035,3.3168,3.3191,3.3283,3.3125,3.3127,3.3129,0,3.2896,3.2918,3.3,3.3005,3.3019,3.3056,3.3079,3.3108,3.3121,3.3116,3.3133,3.3111,3.3156,3.3106,3.3167,3.3126,3.3141,3.3142,3.3145,3.3145,3.3089,3.3168,3.3312,3.3325,3.3149,3.3147,3.3146,0,3.2994,3.3045,3.3099,3.3109,3.3117,3.3143,3.3148,3.3158,3.3175,3.3196,3.3207,3.3233,3.3247,3.3267,3.3252,3.3218,3.3314,3.3264,3.3309,3.3309,3.3328,3.3327,3.3473,3.3344,3.3344,3.3344,3.3344,0,3.3112,3.3162,3.3143,3.3176,3.3231,3.3211,3.3265,3.3266,3.3275,3.3306,3.3277,3.3307,3.3287,3.3316,3.3305,3.3354,3.3362,3.3358,3.3353,3.3358,3.3358,3.3365,3.3357,3.3348,3.3347,3.3346,3.3345,0,3.323,3.3219,3.3275,3.3278,3.328,3.332,3.3322,3.3352,3.3347,3.3387,3.3395,3.3387,3.3418,3.3406,3.344,3.3433,3.3495,3.3484,3.349,3.3486,3.353,3.3525,3.3683,3.3701,3.3565,3.3566,3.3567,0,3.3304,3.3341,3.3348,3.3366,3.3373,3.3404,3.3421,3.3402,3.3421,3.3437,3.3464,3.3493,3.3515,3.3567,3.3563,3.3588,3.3576,3.363,3.3579,3.3582,3.3572,3.3568,3.357,3.3639,3.364,3.3642,3.3643,0,3.3435,3.3427,3.3452,3.3475,3.3496,3.3514,3.3529,3.3546,3.3527,3.355,3.3581,3.3598,3.3631,3.3659,3.3681,3.3686,3.366,3.3659,3.367,3.3673,3.3673,3.367,3.3514,3.3655,3.3653,3.3652,3.3652,3.3651,3.3531,3.3561,3.3569,3.3597,3.3606,3.362,3.3647,3.3645,3.367,3.3695,3.3683,3.3719,3.3728,3.3755,3.3762,3.3789,3.3768,3.3785,3.3789,3.3792,3.3796,3.3672,3.3794,3.3793,3.3793,3.3793,3.3792,0,3.3657,3.366,3.3686,3.3707,3.3728,3.3703,3.3718,3.3737,3.3769,3.378,3.3801,3.3835,3.3862,3.386,3.3884,3.3906,3.3894,3.3912,3.3909,3.3909,3.3815,3.3802,3.3921,3.3921,3.3921,3.3921,3.3921,3.3921,3.3725,3.3773,3.3766,3.3818,3.3821,3.3854,3.3864,3.3876,3.3884,3.3924,3.3945,3.3944,3.3949,3.3972,3.3995,3.3994,3.4002,3.4024,3.4018,3.3929,3.3917,3.3904,3.3891,3.4027,3.4027,3.4109,3.411,3.411]},{"header":{"parameterUnit":"m.s-1","parameterCategory":1,"la1":30.2991,"la2":30.254,"lo1":-89.0895,"lo2":-89.0444,"dy":0.0017,"dx":0.0017,"nx":28,"ny":28,"refTime":"2023-07-25T09:00:00:Z","depth":0,"parameterNumber":3,"parameterNumberName":"V-component_of_WINDS"},"data":[0,0,0,0,0,0,0,0,0,0,0,0,0,0,0,0,0,0,0,0,0,0,0,0,0,0,0,0,0,0,0,0,0,0,0,0,0,0,0,0,0,0,0,0,0,0,0,0,0,0,0,0,0,0,0,0,0,0,1.2396,1.2397,0,1.2436,1.2437,1.2437,1.2427,1.2426,1.2425,1.2424,1.2464,1.2466,1.2468,0,0,0,0,0,0,0,0,0,0,0,0,0,1.2307,1.2309,1.2396,1.2397,1.2397,1.2436,1.2437,1.2437,1.2427,1.2426,1.2425,1.2424,1.2463,1.2465,1.2468,0,0,0,0,0,0,0,0,0,0,0,0,0,1.2346,1.2309,1.2396,1.2397,1.2397,1.2436,1.2437,1.2438,1.2427,1.2426,1.2424,1.2423,1.2463,1.2465,1.2468,1.2509,0,0,1.2476,1.2477,0,0,0,0,0,0,0,0,1.2344,1.235,1.2396,1.2397,1.2397,1.2425,1.242,1.2461,1.2427,1.2416,1.2424,1.2423,1.2452,1.2455,1.2466,1.2511,1.2512,1.2476,1.2478,1.2479,1.248,0,0,0,0,0,0,0,1.2342,1.2348,1.2412,1.2397,1.2397,1.2394,1.2398,1.2428,1.244,1.2416,1.2416,1.2421,1.2452,1.2463,1.2466,1.2513,1.2476,1.2479,1.248,1.2482,1.2591,1.2592,0,0,0,0,0,0,1.2339,1.2346,1.2411,1.2413,1.2367,1.2396,1.2401,1.2417,1.244,1.2442,1.2422,1.242,1.2459,1.2463,1.2468,1.2516,1.2479,1.2482,1.2483,1.259,1.2592,1.2593,0,0,0,0,0,0,1.2337,1.2345,1.2409,1.2379,1.2387,1.2399,1.2418,1.2419,1.243,1.2444,1.2445,1.2431,1.2458,1.2464,1.2498,1.2517,1.2483,1.2486,1.2588,1.259,1.2592,1.2613,0,0,0,0,0,0,1.2334,1.2344,1.236,1.238,1.2389,1.244,1.2419,1.2421,1.2435,1.2433,1.2453,1.2455,1.2458,1.2494,1.2501,1.252,1.2488,1.2587,1.2589,1.2592,1.2611,1.2615,1.2619,0,0,0,0,0,1.2331,1.2365,1.2361,1.2369,1.241,1.2441,1.2446,1.2449,1.2436,1.2452,1.2461,1.2454,1.2514,1.2498,1.2505,1.2526,1.2586,1.2589,1.2591,1.2609,1.2614,1.2619,0,0,0,0,0,0,1.2347,1.2367,1.2364,1.2405,1.2421,1.2439,1.246,1.2456,1.2476,1.2473,1.2475,1.248,1.2515,1.2524,1.2505,1.2565,1.2548,1.2552,1.2558,1.2564,1.2568,1.2565,1.249,0,0,0,0,0,1.2356,1.238,1.2396,1.2431,1.2439,1.2448,1.2462,1.2462,1.2479,1.2486,1.2497,1.2513,1.2535,1.255,1.2572,1.2612,1.2615,1.2629,1.2633,1.2637,1.2641,1.2661,1.2667,1.2602,1.2602,1.2602,0,0,1.2373,1.2387,1.2402,1.2434,1.2447,1.2471,1.2454,1.2481,1.2498,1.249,1.2523,1.2531,1.2549,1.2586,1.2603,1.2595,1.2659,1.2641,1.2643,1.2645,1.2664,1.267,1.2676,1.2604,1.2604,1.2604,0,0,1.2417,1.2431,1.246,1.2473,1.2493,1.2498,1.2505,1.2523,1.2529,1.2562,1.2556,1.2576,1.2615,1.2627,1.2639,1.2686,1.268,1.2692,1.2715,1.2735,1.274,1.2744,1.276,1.2765,1.2696,1.2696,1.2696,0,1.2436,1.2473,1.2476,1.2503,1.2516,1.251,1.2539,1.2551,1.2577,1.2585,1.2576,1.2623,1.2635,1.2674,1.2685,1.2695,1.2702,1.269,1.2739,1.2743,1.2748,1.2762,1.2768,1.2698,1.2697,1.2697,1.2697,0,1.2495,1.252,1.2542,1.2566,1.2582,1.261,1.2616,1.2631,1.263,1.2636,1.2669,1.2682,1.2706,1.2715,1.2714,1.2753,1.2747,1.2738,1.2721,1.2755,1.2769,1.2775,1.27,1.2699,1.2699,1.2698,0,0,1.2551,1.2576,1.2583,1.2594,1.2614,1.2633,1.266,1.2683,1.2695,1.2713,1.2734,1.2766,1.2757,1.277,1.2771,1.2788,1.2822,1.2777,1.2777,1.2784,1.2865,1.2871,1.2877,1.2819,1.282,1.2821,1.2863,0,1.2596,1.2644,1.2646,1.2689,1.2712,1.2705,1.2728,1.2742,1.2748,1.2767,1.2774,1.2796,1.2783,1.2791,1.2808,1.2815,1.2839,1.2812,1.2838,1.2839,1.2833,1.2885,1.2892,1.2931,1.2868,1.2869,1.287,0,1.2655,1.2674,1.2719,1.2735,1.2744,1.2765,1.2785,1.2804,1.2819,1.2822,1.2836,1.2833,1.2859,1.2841,1.2876,1.2858,1.2868,1.2873,1.2875,1.2877,1.2856,1.2887,1.2943,1.2949,1.2879,1.2878,1.2877,0,1.269,1.2727,1.2758,1.2767,1.2786,1.2801,1.2809,1.2823,1.2836,1.2854,1.2862,1.2882,1.2893,1.2908,1.291,1.2897,1.2945,1.2927,1.2947,1.2947,1.2957,1.2956,1.3015,1.2965,1.2965,1.2965,1.2965,0,1.274,1.2767,1.2774,1.2793,1.2823,1.2825,1.2854,1.2861,1.2874,1.2893,1.2889,1.2907,1.291,1.2928,1.293,1.2958,1.2963,1.2965,1.2965,1.2966,1.2965,1.2972,1.2969,1.2966,1.2966,1.2966,1.2966,0,1.2784,1.279,1.2823,1.2838,1.2842,1.2864,1.2876,1.2894,1.2899,1.2923,1.2929,1.2937,1.2958,1.2962,1.2987,1.2989,1.3021,1.3019,1.3016,1.3016,1.3035,1.3033,1.3099,1.3108,1.3053,1.3054,1.3054,0,1.2815,1.2836,1.2853,1.2866,1.2875,1.2896,1.2909,1.2911,1.2924,1.2942,1.2957,1.2978,1.2995,1.303,1.3037,1.3056,1.3053,1.3075,1.3056,1.3055,1.3052,1.3051,1.3052,1.3079,1.3079,1.308,1.308,0,1.2869,1.287,1.2889,1.2909,1.2925,1.294,1.2955,1.2965,1.2969,1.2984,1.3006,1.3019,1.3045,1.3065,1.3083,1.3091,1.3086,1.3086,1.3092,1.3091,1.3088,1.3089,1.3025,1.3085,1.3084,1.3084,1.3084,1.3083,1.2907,1.2924,1.2939,1.296,1.2971,1.2984,1.3001,1.3008,1.3026,1.3047,1.3047,1.307,1.3083,1.3108,1.3117,1.3134,1.3127,1.3135,1.3137,1.3139,1.314,1.3086,1.3138,1.3138,1.3137,1.3137,1.3137,0,1.296,1.2968,1.2987,1.3008,1.3024,1.3018,1.3033,1.3047,1.3068,1.308,1.3097,1.3121,1.314,1.3148,1.3167,1.318,1.3177,1.3184,1.3183,1.3185,1.3146,1.3139,1.3186,1.3185,1.3185,1.3185,1.3185,1.3185,1.2989,1.3018,1.3021,1.3054,1.3062,1.3086,1.3095,1.3107,1.3117,1.3144,1.316,1.3165,1.3176,1.3195,1.3212,1.3214,1.322,1.3228,1.3228,1.3192,1.3187,1.3183,1.3176,1.323,1.323,1.3265,1.3266,1.3266]}]]